Year,Month,Day,Hour,Minute,Value (Times are PST for temperature in C)
2010,08,21,00,00,13.10
2010,08,21,00,01,13.10
2010,08,21,00,02,13.10
2010,08,21,00,03,13.10
2010,08,21,00,04,13.10
2010,08,21,00,05,13.10
2010,08,21,00,06,13.10
2010,08,21,00,07,13.10
2010,08,21,00,08,13.10
2010,08,21,00,09,13.10
2010,08,21,00,10,13.10
2010,08,21,00,11,13.20
2010,08,21,00,12,13.20
2010,08,21,00,13,13.20
2010,08,21,00,14,13.20
2010,08,21,00,15,13.20
2010,08,21,00,16,13.20
2010,08,21,00,17,13.20
2010,08,21,00,18,13.20
2010,08,21,00,19,13.20
2010,08,21,00,20,13.20
2010,08,21,00,21,13.20
2010,08,21,00,22,13.20
2010,08,21,00,23,13.20
2010,08,21,00,24,13.20
2010,08,21,00,25,13.20
2010,08,21,00,26,13.20
2010,08,21,00,27,13.20
2010,08,21,00,28,13.20
2010,08,21,00,29,13.20
2010,08,21,00,30,13.20
2010,08,21,00,31,13.20
2010,08,21,00,32,13.20
2010,08,21,00,33,13.20
2010,08,21,00,34,13.20
2010,08,21,00,35,13.20
2010,08,21,00,36,13.20
2010,08,21,00,37,13.20
2010,08,21,00,38,13.20
2010,08,21,00,39,13.20
2010,08,21,00,40,13.20
2010,08,21,00,41,13.20
2010,08,21,00,42,13.10
2010,08,21,00,43,13.10
2010,08,21,00,44,13.10
2010,08,21,00,45,13.10
2010,08,21,00,46,13.10
2010,08,21,00,47,13.10
2010,08,21,00,48,13.10
2010,08,21,00,49,13.10
2010,08,21,00,50,13.10
2010,08,21,00,51,13.10
2010,08,21,00,52,13.10
2010,08,21,00,53,13.10
2010,08,21,00,54,13.10
2010,08,21,00,55,13.10
2010,08,21,00,56,13.10
2010,08,21,00,57,13.10
2010,08,21,00,58,13.10
2010,08,21,00,59,13.10
2010,08,21,01,00,13.10
2010,08,21,01,01,13.00
2010,08,21,01,02,13.00
2010,08,21,01,03,13.00
2010,08,21,01,04,13.00
2010,08,21,01,05,13.00
2010,08,21,01,06,13.00
2010,08,21,01,07,13.00
2010,08,21,01,08,13.00
2010,08,21,01,09,13.00
2010,08,21,01,10,12.90
2010,08,21,01,11,12.90
2010,08,21,01,12,12.90
2010,08,21,01,13,12.90
2010,08,21,01,14,12.90
2010,08,21,01,15,12.90
2010,08,21,01,16,12.90
2010,08,21,01,17,12.90
2010,08,21,01,18,12.80
2010,08,21,01,19,12.80
2010,08,21,01,20,12.80
2010,08,21,01,21,12.80
2010,08,21,01,22,12.80
2010,08,21,01,23,12.80
2010,08,21,01,24,12.80
2010,08,21,01,25,12.80
2010,08,21,01,26,12.80
2010,08,21,01,27,12.80
2010,08,21,01,28,12.80
2010,08,21,01,29,12.80
2010,08,21,01,30,12.80
2010,08,21,01,31,12.80
2010,08,21,01,32,12.80
2010,08,21,01,33,12.80
2010,08,21,01,34,12.80
2010,08,21,01,35,12.80
2010,08,21,01,36,12.80
2010,08,21,01,37,12.80
2010,08,21,01,38,12.80
2010,08,21,01,39,12.70
2010,08,21,01,40,12.70
2010,08,21,01,41,12.60
2010,08,21,01,42,12.60
2010,08,21,01,43,12.60
2010,08,21,01,44,12.60
2010,08,21,01,45,12.50
2010,08,21,01,46,12.50
2010,08,21,01,47,12.50
2010,08,21,01,48,12.50
2010,08,21,01,49,12.50
2010,08,21,01,50,12.40
2010,08,21,01,51,12.40
2010,08,21,01,52,12.40
2010,08,21,01,53,12.30
2010,08,21,01,54,12.30
2010,08,21,01,55,12.30
2010,08,21,01,56,12.30
2010,08,21,01,57,12.30
2010,08,21,01,58,12.30
2010,08,21,01,59,12.30
2010,08,21,02,00,12.30
2010,08,21,02,01,12.30
2010,08,21,02,02,12.30
2010,08,21,02,03,12.30
2010,08,21,02,04,12.30
2010,08,21,02,05,12.30
2010,08,21,02,06,12.30
2010,08,21,02,07,12.30
2010,08,21,02,08,12.30
2010,08,21,02,09,12.30
2010,08,21,02,10,12.30
2010,08,21,02,11,12.20
2010,08,21,02,12,12.20
2010,08,21,02,13,12.20
2010,08,21,02,14,12.10
2010,08,21,02,15,12.10
2010,08,21,02,16,12.10
2010,08,21,02,17,12.10
2010,08,21,02,18,12.10
2010,08,21,02,19,12.10
2010,08,21,02,20,12.10
2010,08,21,02,21,12.10
2010,08,21,02,22,12.10
2010,08,21,02,23,12.10
2010,08,21,02,24,12.10
2010,08,21,02,25,12.10
2010,08,21,02,26,12.00
2010,08,21,02,27,12.00
2010,08,21,02,28,12.00
2010,08,21,02,29,12.00
2010,08,21,02,30,11.90
2010,08,21,02,31,11.90
2010,08,21,02,32,11.80
2010,08,21,02,33,11.80
2010,08,21,02,34,11.80
2010,08,21,02,35,11.80
2010,08,21,02,36,11.80
2010,08,21,02,37,11.70
2010,08,21,02,38,11.70
2010,08,21,02,39,11.70
2010,08,21,02,40,11.70
2010,08,21,02,41,11.70
2010,08,21,02,42,11.60
2010,08,21,02,43,11.60
2010,08,21,02,44,11.60
2010,08,21,02,45,11.60
2010,08,21,02,46,11.60
2010,08,21,02,47,11.60
2010,08,21,02,48,11.60
2010,08,21,02,49,11.60
2010,08,21,02,50,11.60
2010,08,21,02,51,11.60
2010,08,21,02,52,11.60
2010,08,21,02,53,11.60
2010,08,21,02,54,11.60
2010,08,21,02,55,11.70
2010,08,21,02,56,11.70
2010,08,21,02,57,11.70
2010,08,21,02,58,11.70
2010,08,21,02,59,11.70
2010,08,21,03,00,11.80
2010,08,21,03,01,11.80
2010,08,21,03,02,11.80
2010,08,21,03,03,11.80
2010,08,21,03,04,11.80
2010,08,21,03,05,11.80
2010,08,21,03,06,11.80
2010,08,21,03,07,11.80
2010,08,21,03,08,11.80
2010,08,21,03,09,11.80
2010,08,21,03,10,11.80
2010,08,21,03,11,11.80
2010,08,21,03,12,11.80
2010,08,21,03,13,11.80
2010,08,21,03,14,11.80
2010,08,21,03,15,11.80
2010,08,21,03,16,11.80
2010,08,21,03,17,11.80
2010,08,21,03,18,11.80
2010,08,21,03,19,11.80
2010,08,21,03,20,11.80
2010,08,21,03,21,11.80
2010,08,21,03,22,11.80
2010,08,21,03,23,11.70
2010,08,21,03,24,11.70
2010,08,21,03,25,11.70
2010,08,21,03,26,11.70
2010,08,21,03,27,11.70
2010,08,21,03,28,11.70
2010,08,21,03,29,11.70
2010,08,21,03,30,11.70
2010,08,21,03,31,11.70
2010,08,21,03,32,11.70
2010,08,21,03,33,11.70
2010,08,21,03,34,11.70
2010,08,21,03,35,11.70
2010,08,21,03,36,11.70
2010,08,21,03,37,11.70
2010,08,21,03,38,11.70
2010,08,21,03,39,11.70
2010,08,21,03,40,11.70
2010,08,21,03,41,11.70
2010,08,21,03,42,11.70
2010,08,21,03,43,11.70
2010,08,21,03,44,11.70
2010,08,21,03,45,11.70
2010,08,21,03,46,11.70
2010,08,21,03,47,11.80
2010,08,21,03,48,11.80
2010,08,21,03,49,11.80
2010,08,21,03,50,11.80
2010,08,21,03,51,11.80
2010,08,21,03,52,11.80
2010,08,21,03,53,11.80
2010,08,21,03,54,11.80
2010,08,21,03,55,11.80
2010,08,21,03,56,11.80
2010,08,21,03,57,11.80
2010,08,21,03,58,11.80
2010,08,21,03,59,11.80
2010,08,21,04,00,11.80
2010,08,21,04,01,11.80
2010,08,21,04,02,11.80
2010,08,21,04,03,11.80
2010,08,21,04,04,11.80
2010,08,21,04,05,11.80
2010,08,21,04,06,11.80
2010,08,21,04,07,11.90
2010,08,21,04,08,11.90
2010,08,21,04,09,11.90
2010,08,21,04,10,11.90
2010,08,21,04,11,11.90
2010,08,21,04,12,11.90
2010,08,21,04,13,11.90
2010,08,21,04,14,12.00
2010,08,21,04,15,12.00
2010,08,21,04,16,12.00
2010,08,21,04,17,12.00
2010,08,21,04,18,12.00
2010,08,21,04,19,12.00
2010,08,21,04,20,12.10
2010,08,21,04,21,12.10
2010,08,21,04,22,12.10
2010,08,21,04,23,12.10
2010,08,21,04,24,12.10
2010,08,21,04,25,12.10
2010,08,21,04,26,12.10
2010,08,21,04,27,12.10
2010,08,21,04,28,12.10
2010,08,21,04,29,12.10
2010,08,21,04,30,12.10
2010,08,21,04,31,12.10
2010,08,21,04,32,12.10
2010,08,21,04,33,12.10
2010,08,21,04,34,12.10
2010,08,21,04,35,12.10
2010,08,21,04,36,12.10
2010,08,21,04,37,12.10
2010,08,21,04,38,12.10
2010,08,21,04,39,12.10
2010,08,21,04,40,12.10
2010,08,21,04,41,12.10
2010,08,21,04,42,12.10
2010,08,21,04,43,12.10
2010,08,21,04,44,12.10
2010,08,21,04,45,12.10
2010,08,21,04,46,12.10
2010,08,21,04,47,12.10
2010,08,21,04,48,12.10
2010,08,21,04,49,12.20
2010,08,21,04,50,12.20
2010,08,21,04,51,12.20
2010,08,21,04,52,12.20
2010,08,21,04,53,12.20
2010,08,21,04,54,12.20
2010,08,21,04,55,12.20
2010,08,21,04,56,12.10
2010,08,21,04,57,12.10
2010,08,21,04,58,12.10
2010,08,21,04,59,12.10
2010,08,21,05,00,12.10
2010,08,21,05,01,12.10
2010,08,21,05,02,12.10
2010,08,21,05,03,12.00
2010,08,21,05,04,12.00
2010,08,21,05,05,12.00
2010,08,21,05,06,12.00
2010,08,21,05,07,12.00
2010,08,21,05,08,12.00
2010,08,21,05,09,12.00
2010,08,21,05,10,12.00
2010,08,21,05,11,12.00
2010,08,21,05,12,12.00
2010,08,21,05,13,12.00
2010,08,21,05,14,12.00
2010,08,21,05,15,12.10
2010,08,21,05,16,12.10
2010,08,21,05,17,12.10
2010,08,21,05,18,12.10
2010,08,21,05,19,12.10
2010,08,21,05,20,12.10
2010,08,21,05,21,12.20
2010,08,21,05,22,12.20
2010,08,21,05,23,12.20
2010,08,21,05,24,12.20
2010,08,21,05,25,12.20
2010,08,21,05,26,12.20
2010,08,21,05,27,12.20
2010,08,21,05,28,12.20
2010,08,21,05,29,12.20
2010,08,21,05,30,12.20
2010,08,21,05,31,12.20
2010,08,21,05,32,12.20
2010,08,21,05,33,12.20
2010,08,21,05,34,12.20
2010,08,21,05,35,12.20
2010,08,21,05,36,12.20
2010,08,21,05,37,12.20
2010,08,21,05,38,12.20
2010,08,21,05,39,12.20
2010,08,21,05,40,12.20
2010,08,21,05,41,12.20
2010,08,21,05,42,12.20
2010,08,21,05,43,12.10
2010,08,21,05,44,12.10
2010,08,21,05,45,12.10
2010,08,21,05,46,12.10
2010,08,21,05,47,12.10
2010,08,21,05,48,12.10
2010,08,21,05,49,12.10
2010,08,21,05,50,12.10
2010,08,21,05,51,12.10
2010,08,21,05,52,12.10
2010,08,21,05,53,12.10
2010,08,21,05,54,12.10
2010,08,21,05,55,12.20
2010,08,21,05,56,12.20
2010,08,21,05,57,12.20
2010,08,21,05,58,12.20
2010,08,21,05,59,12.20
2010,08,21,06,00,12.20
2010,08,21,06,01,12.20
2010,08,21,06,02,12.20
2010,08,21,06,03,12.30
2010,08,21,06,04,12.30
2010,08,21,06,05,12.30
2010,08,21,06,06,12.30
2010,08,21,06,07,12.30
2010,08,21,06,08,12.30
2010,08,21,06,09,12.30
2010,08,21,06,10,12.30
2010,08,21,06,11,12.30
2010,08,21,06,12,12.30
2010,08,21,06,13,12.30
2010,08,21,06,14,12.30
2010,08,21,06,15,12.30
2010,08,21,06,16,12.30
2010,08,21,06,17,12.30
2010,08,21,06,18,12.40
2010,08,21,06,19,12.40
2010,08,21,06,20,12.40
2010,08,21,06,21,12.40
2010,08,21,06,22,12.40
2010,08,21,06,23,12.40
2010,08,21,06,24,12.40
2010,08,21,06,25,12.40
2010,08,21,06,26,12.40
2010,08,21,06,27,12.40
2010,08,21,06,28,12.40
2010,08,21,06,29,12.40
2010,08,21,06,30,12.50
2010,08,21,06,31,12.50
2010,08,21,06,32,12.50
2010,08,21,06,33,12.50
2010,08,21,06,34,12.50
2010,08,21,06,35,12.50
2010,08,21,06,36,12.50
2010,08,21,06,37,12.50
2010,08,21,06,38,12.50
2010,08,21,06,39,12.50
2010,08,21,06,40,12.50
2010,08,21,06,41,12.60
2010,08,21,06,42,12.60
2010,08,21,06,43,12.60
2010,08,21,06,44,12.60
2010,08,21,06,45,12.60
2010,08,21,06,46,12.60
2010,08,21,06,47,12.60
2010,08,21,06,48,12.60
2010,08,21,06,49,12.60
2010,08,21,06,50,12.60
2010,08,21,06,51,12.60
2010,08,21,06,52,12.60
2010,08,21,06,53,12.60
2010,08,21,06,54,12.60
2010,08,21,06,55,12.60
2010,08,21,06,56,12.60
2010,08,21,06,57,12.60
2010,08,21,06,58,12.50
2010,08,21,06,59,12.60
2010,08,21,07,00,12.60
2010,08,21,07,01,12.60
2010,08,21,07,02,12.60
2010,08,21,07,03,12.60
2010,08,21,07,04,12.60
2010,08,21,07,05,12.60
2010,08,21,07,06,12.60
2010,08,21,07,07,12.60
2010,08,21,07,08,12.60
2010,08,21,07,09,12.60
2010,08,21,07,10,12.60
2010,08,21,07,11,12.60
2010,08,21,07,12,12.60
2010,08,21,07,13,12.60
2010,08,21,07,14,12.60
2010,08,21,07,15,12.60
2010,08,21,07,16,12.60
2010,08,21,07,17,12.70
2010,08,21,07,18,12.70
2010,08,21,07,19,12.70
2010,08,21,07,20,12.70
2010,08,21,07,21,12.70
2010,08,21,07,22,12.80
2010,08,21,07,23,12.80
2010,08,21,07,24,12.80
2010,08,21,07,25,12.80
2010,08,21,07,26,12.80
2010,08,21,07,27,12.80
2010,08,21,07,28,12.90
2010,08,21,07,29,12.90
2010,08,21,07,30,13.00
2010,08,21,07,31,13.00
2010,08,21,07,32,13.10
2010,08,21,07,33,13.10
2010,08,21,07,34,13.10
2010,08,21,07,35,13.20
2010,08,21,07,36,13.20
2010,08,21,07,37,13.30
2010,08,21,07,38,13.30
2010,08,21,07,39,13.30
2010,08,21,07,40,13.30
2010,08,21,07,41,13.30
2010,08,21,07,42,13.30
2010,08,21,07,43,13.40
2010,08,21,07,44,13.40
2010,08,21,07,45,13.50
2010,08,21,07,46,13.50
2010,08,21,07,47,13.50
2010,08,21,07,48,13.50
2010,08,21,07,49,13.60
2010,08,21,07,50,13.60
2010,08,21,07,51,13.70
2010,08,21,07,52,13.70
2010,08,21,07,53,13.70
2010,08,21,07,54,13.70
2010,08,21,07,55,13.70
2010,08,21,07,56,13.80
2010,08,21,07,57,13.80
2010,08,21,07,58,13.80
2010,08,21,07,59,13.80
2010,08,21,08,00,13.90
2010,08,21,08,01,13.90
2010,08,21,08,02,13.90
2010,08,21,08,03,13.90
2010,08,21,08,04,13.90
2010,08,21,08,05,14.00
2010,08,21,08,06,14.00
2010,08,21,08,07,14.00
2010,08,21,08,08,14.00
2010,08,21,08,09,14.00
2010,08,21,08,10,14.00
2010,08,21,08,11,14.10
2010,08,21,08,12,14.10
2010,08,21,08,13,14.10
2010,08,21,08,14,14.10
2010,08,21,08,15,14.10
2010,08,21,08,16,14.10
2010,08,21,08,17,14.10
2010,08,21,08,18,14.10
2010,08,21,08,19,14.10
2010,08,21,08,20,14.10
2010,08,21,08,21,14.10
2010,08,21,08,22,14.20
2010,08,21,08,23,14.20
2010,08,21,08,24,14.20
2010,08,21,08,25,14.20
2010,08,21,08,26,14.20
2010,08,21,08,27,14.20
2010,08,21,08,28,14.30
2010,08,21,08,29,14.30
2010,08,21,08,30,14.30
2010,08,21,08,31,14.40
2010,08,21,08,32,14.40
2010,08,21,08,33,14.50
2010,08,21,08,34,14.50
2010,08,21,08,35,14.60
2010,08,21,08,36,14.60
2010,08,21,08,37,14.70
2010,08,21,08,38,14.80
2010,08,21,08,39,14.80
2010,08,21,08,40,14.90
2010,08,21,08,41,15.00
2010,08,21,08,42,15.10
2010,08,21,08,43,15.20
2010,08,21,08,44,15.40
2010,08,21,08,45,15.50
2010,08,21,08,46,15.60
2010,08,21,08,47,15.70
2010,08,21,08,48,15.80
2010,08,21,08,49,16.00
2010,08,21,08,50,16.10
2010,08,21,08,51,16.20
2010,08,21,08,52,16.30
2010,08,21,08,53,16.40
2010,08,21,08,54,16.40
2010,08,21,08,55,16.50
2010,08,21,08,56,16.60
2010,08,21,08,57,16.70
2010,08,21,08,58,16.80
2010,08,21,08,59,16.80
2010,08,21,09,00,16.90
2010,08,21,09,01,17.00
2010,08,21,09,02,17.00
2010,08,21,09,03,17.10
2010,08,21,09,04,17.10
2010,08,21,09,05,17.20
2010,08,21,09,06,17.30
2010,08,21,09,07,17.30
2010,08,21,09,08,17.40
2010,08,21,09,09,17.40
2010,08,21,09,10,17.50
2010,08,21,09,11,17.50
2010,08,21,09,12,17.50
2010,08,21,09,13,17.60
2010,08,21,09,14,17.60
2010,08,21,09,15,17.60
2010,08,21,09,16,17.60
2010,08,21,09,17,17.60
2010,08,21,09,18,17.70
2010,08,21,09,19,17.70
2010,08,21,09,20,17.80
2010,08,21,09,21,17.80
2010,08,21,09,22,17.90
2010,08,21,09,23,17.90
2010,08,21,09,24,17.90
2010,08,21,09,25,18.00
2010,08,21,09,26,18.10
2010,08,21,09,27,18.10
2010,08,21,09,28,18.20
2010,08,21,09,29,18.20
2010,08,21,09,30,18.30
2010,08,21,09,31,18.50
2010,08,21,09,32,18.50
2010,08,21,09,33,18.60
2010,08,21,09,34,18.60
2010,08,21,09,35,18.60
2010,08,21,09,36,18.60
2010,08,21,09,37,18.60
2010,08,21,09,38,18.50
2010,08,21,09,39,18.60
2010,08,21,09,40,18.60
2010,08,21,09,41,18.60
2010,08,21,09,42,18.70
2010,08,21,09,43,18.70
2010,08,21,09,44,18.80
2010,08,21,09,45,18.80
2010,08,21,09,46,18.80
2010,08,21,09,47,18.90
2010,08,21,09,48,18.90
2010,08,21,09,49,18.90
2010,08,21,09,50,18.90
2010,08,21,09,51,18.90
2010,08,21,09,52,18.90
2010,08,21,09,53,18.90
2010,08,21,09,54,18.90
2010,08,21,09,55,18.90
2010,08,21,09,56,18.90
2010,08,21,09,57,18.70
2010,08,21,09,58,18.60
2010,08,21,09,59,18.50
2010,08,21,10,00,18.50
2010,08,21,10,01,18.40
2010,08,21,10,02,18.50
2010,08,21,10,03,18.50
2010,08,21,10,04,18.30
2010,08,21,10,05,18.10
2010,08,21,10,06,17.90
2010,08,21,10,07,17.80
2010,08,21,10,08,17.70
2010,08,21,10,09,17.80
2010,08,21,10,10,17.80
2010,08,21,10,11,17.90
2010,08,21,10,12,17.90
2010,08,21,10,13,17.90
2010,08,21,10,14,17.90
2010,08,21,10,15,17.90
2010,08,21,10,16,17.80
2010,08,21,10,17,17.80
2010,08,21,10,18,17.90
2010,08,21,10,19,17.90
2010,08,21,10,20,17.80
2010,08,21,10,21,17.80
2010,08,21,10,22,17.80
2010,08,21,10,23,17.90
2010,08,21,10,24,17.90
2010,08,21,10,25,17.90
2010,08,21,10,26,17.90
2010,08,21,10,27,18.10
2010,08,21,10,28,18.20
2010,08,21,10,29,18.30
2010,08,21,10,30,18.40
2010,08,21,10,31,18.30
2010,08,21,10,32,18.20
2010,08,21,10,33,18.20
2010,08,21,10,34,18.20
2010,08,21,10,35,18.30
2010,08,21,10,36,18.40
2010,08,21,10,37,18.50
2010,08,21,10,38,18.60
2010,08,21,10,39,18.60
2010,08,21,10,40,18.60
2010,08,21,10,41,18.50
2010,08,21,10,42,18.40
2010,08,21,10,43,18.40
2010,08,21,10,44,18.20
2010,08,21,10,45,18.20
2010,08,21,10,46,18.10
2010,08,21,10,47,18.10
2010,08,21,10,48,17.90
2010,08,21,10,49,17.80
2010,08,21,10,50,17.70
2010,08,21,10,51,17.70
2010,08,21,10,52,17.70
2010,08,21,10,53,17.70
2010,08,21,10,54,17.80
2010,08,21,10,55,17.90
2010,08,21,10,56,17.90
2010,08,21,10,57,17.80
2010,08,21,10,58,17.80
2010,08,21,10,59,17.70
2010,08,21,11,00,17.70
2010,08,21,11,01,17.70
2010,08,21,11,02,17.70
2010,08,21,11,03,17.70
2010,08,21,11,04,17.80
2010,08,21,11,05,17.80
2010,08,21,11,06,17.80
2010,08,21,11,07,17.90
2010,08,21,11,08,18.00
2010,08,21,11,09,18.10
2010,08,21,11,10,18.10
2010,08,21,11,11,18.20
2010,08,21,11,12,18.20
2010,08,21,11,13,18.30
2010,08,21,11,14,18.30
2010,08,21,11,15,18.20
2010,08,21,11,16,18.20
2010,08,21,11,17,18.30
2010,08,21,11,18,18.40
2010,08,21,11,19,18.40
2010,08,21,11,20,18.50
2010,08,21,11,21,18.60
2010,08,21,11,22,18.60
2010,08,21,11,23,18.70
2010,08,21,11,24,18.70
2010,08,21,11,25,18.60
2010,08,21,11,26,18.60
2010,08,21,11,27,18.50
2010,08,21,11,28,18.40
2010,08,21,11,29,18.40
2010,08,21,11,30,18.50
2010,08,21,11,31,18.60
2010,08,21,11,32,18.60
2010,08,21,11,33,18.70
2010,08,21,11,34,18.70
2010,08,21,11,35,18.70
2010,08,21,11,36,18.70
2010,08,21,11,37,18.70
2010,08,21,11,38,18.80
2010,08,21,11,39,18.70
2010,08,21,11,40,18.70
2010,08,21,11,41,18.70
2010,08,21,11,42,18.70
2010,08,21,11,43,18.70
2010,08,21,11,44,18.70
2010,08,21,11,45,18.80
2010,08,21,11,46,18.90
2010,08,21,11,47,19.00
2010,08,21,11,48,19.10
2010,08,21,11,49,19.10
2010,08,21,11,50,19.20
2010,08,21,11,51,19.30
2010,08,21,11,52,19.30
2010,08,21,11,53,19.30
2010,08,21,11,54,19.20
2010,08,21,11,55,19.10
2010,08,21,11,56,18.90
2010,08,21,11,57,18.90
2010,08,21,11,58,18.70
2010,08,21,11,59,18.70
2010,08,21,12,00,18.60
2010,08,21,12,01,18.60
2010,08,21,12,02,18.60
2010,08,21,12,03,18.70
2010,08,21,12,04,18.70
2010,08,21,12,05,18.60
2010,08,21,12,06,18.60
2010,08,21,12,07,18.60
2010,08,21,12,08,18.70
2010,08,21,12,09,18.80
2010,08,21,12,10,18.90
2010,08,21,12,11,19.00
2010,08,21,12,12,19.10
2010,08,21,12,13,19.00
2010,08,21,12,14,18.90
2010,08,21,12,15,18.90
2010,08,21,12,16,18.90
2010,08,21,12,17,18.80
2010,08,21,12,18,18.80
2010,08,21,12,19,18.80
2010,08,21,12,20,18.80
2010,08,21,12,21,18.90
2010,08,21,12,22,19.10
2010,08,21,12,23,19.10
2010,08,21,12,24,19.10
2010,08,21,12,25,19.10
2010,08,21,12,26,19.10
2010,08,21,12,27,19.10
2010,08,21,12,28,19.10
2010,08,21,12,29,19.10
2010,08,21,12,30,19.20
2010,08,21,12,31,19.40
2010,08,21,12,32,19.50
2010,08,21,12,33,19.50
2010,08,21,12,34,19.60
2010,08,21,12,35,19.60
2010,08,21,12,36,19.50
2010,08,21,12,37,19.30
2010,08,21,12,38,19.20
2010,08,21,12,39,19.10
2010,08,21,12,40,19.00
2010,08,21,12,41,18.90
2010,08,21,12,42,18.90
2010,08,21,12,43,18.90
2010,08,21,12,44,18.90
2010,08,21,12,45,18.90
2010,08,21,12,46,18.90
2010,08,21,12,47,18.90
2010,08,21,12,48,18.90
2010,08,21,12,49,18.90
2010,08,21,12,50,19.00
2010,08,21,12,51,19.00
2010,08,21,12,52,18.90
2010,08,21,12,53,18.90
2010,08,21,12,54,18.90
2010,08,21,12,55,18.90
2010,08,21,12,56,18.80
2010,08,21,12,57,18.90
2010,08,21,12,58,18.90
2010,08,21,12,59,18.90
2010,08,21,13,00,18.90
2010,08,21,13,01,18.90
2010,08,21,13,02,18.90
2010,08,21,13,03,18.90
2010,08,21,13,04,18.90
2010,08,21,13,05,18.90
2010,08,21,13,06,18.90
2010,08,21,13,07,18.90
2010,08,21,13,08,18.90
2010,08,21,13,09,18.90
2010,08,21,13,10,18.90
2010,08,21,13,11,19.10
2010,08,21,13,12,19.10
2010,08,21,13,13,19.10
2010,08,21,13,14,19.10
2010,08,21,13,15,19.10
2010,08,21,13,16,19.10
2010,08,21,13,17,19.30
2010,08,21,13,18,19.40
2010,08,21,13,19,19.50
2010,08,21,13,20,19.60
2010,08,21,13,21,19.70
2010,08,21,13,22,19.50
2010,08,21,13,23,19.30
2010,08,21,13,24,19.30
2010,08,21,13,25,19.20
2010,08,21,13,26,19.20
2010,08,21,13,27,19.20
2010,08,21,13,28,19.20
2010,08,21,13,29,19.20
2010,08,21,13,30,19.20
2010,08,21,13,31,19.20
2010,08,21,13,32,19.20
2010,08,21,13,33,19.30
2010,08,21,13,34,19.40
2010,08,21,13,35,19.50
2010,08,21,13,36,19.40
2010,08,21,13,37,19.30
2010,08,21,13,38,19.20
2010,08,21,13,39,19.10
2010,08,21,13,40,19.10
2010,08,21,13,41,19.00
2010,08,21,13,42,18.90
2010,08,21,13,43,18.90
2010,08,21,13,44,18.90
2010,08,21,13,45,18.90
2010,08,21,13,46,18.90
2010,08,21,13,47,18.90
2010,08,21,13,48,18.90
2010,08,21,13,49,19.00
2010,08,21,13,50,18.90
2010,08,21,13,51,18.90
2010,08,21,13,52,18.90
2010,08,21,13,53,18.90
2010,08,21,13,54,19.00
2010,08,21,13,55,19.10
2010,08,21,13,56,19.10
2010,08,21,13,57,19.00
2010,08,21,13,58,18.90
2010,08,21,13,59,18.80
2010,08,21,14,00,18.70
2010,08,21,14,01,18.80
2010,08,21,14,02,18.80
2010,08,21,14,03,18.90
2010,08,21,14,04,18.90
2010,08,21,14,05,19.00
2010,08,21,14,06,19.00
2010,08,21,14,07,18.90
2010,08,21,14,08,18.90
2010,08,21,14,09,18.90
2010,08,21,14,10,18.90
2010,08,21,14,11,18.90
2010,08,21,14,12,19.00
2010,08,21,14,13,19.10
2010,08,21,14,14,19.10
2010,08,21,14,15,19.10
2010,08,21,14,16,19.10
2010,08,21,14,17,19.10
2010,08,21,14,18,19.10
2010,08,21,14,19,19.20
2010,08,21,14,20,19.20
2010,08,21,14,21,19.30
2010,08,21,14,22,19.30
2010,08,21,14,23,19.30
2010,08,21,14,24,19.30
2010,08,21,14,25,19.20
2010,08,21,14,26,19.30
2010,08,21,14,27,19.30
2010,08,21,14,28,19.40
2010,08,21,14,29,19.40
2010,08,21,14,30,19.40
2010,08,21,14,31,19.20
2010,08,21,14,32,19.10
2010,08,21,14,33,19.10
2010,08,21,14,34,19.00
2010,08,21,14,35,18.80
2010,08,21,14,36,18.60
2010,08,21,14,37,18.40
2010,08,21,14,38,18.30
2010,08,21,14,39,18.30
2010,08,21,14,40,18.30
2010,08,21,14,41,18.50
2010,08,21,14,42,18.50
2010,08,21,14,43,18.60
2010,08,21,14,44,18.70
2010,08,21,14,45,18.80
2010,08,21,14,46,18.80
2010,08,21,14,47,18.80
2010,08,21,14,48,18.70
2010,08,21,14,49,18.60
2010,08,21,14,50,18.60
2010,08,21,14,51,18.60
2010,08,21,14,52,18.60
2010,08,21,14,53,18.60
2010,08,21,14,54,18.60
2010,08,21,14,55,18.50
2010,08,21,14,56,18.60
2010,08,21,14,57,18.50
2010,08,21,14,58,18.50
2010,08,21,14,59,18.50
2010,08,21,15,00,18.60
2010,08,21,15,01,18.60
2010,08,21,15,02,18.60
2010,08,21,15,03,18.60
2010,08,21,15,04,18.60
2010,08,21,15,05,18.70
2010,08,21,15,06,18.70
2010,08,21,15,07,18.80
2010,08,21,15,08,18.90
2010,08,21,15,09,19.00
2010,08,21,15,10,19.10
2010,08,21,15,11,19.20
2010,08,21,15,12,19.30
2010,08,21,15,13,19.40
2010,08,21,15,14,19.50
2010,08,21,15,15,19.60
2010,08,21,15,16,19.80
2010,08,21,15,17,19.90
2010,08,21,15,18,20.10
2010,08,21,15,19,20.20
2010,08,21,15,20,20.30
2010,08,21,15,21,20.30
2010,08,21,15,22,20.30
2010,08,21,15,23,20.30
2010,08,21,15,24,20.40
2010,08,21,15,25,20.50
2010,08,21,15,26,20.50
2010,08,21,15,27,20.60
2010,08,21,15,28,20.70
2010,08,21,15,29,20.80
2010,08,21,15,30,20.90
2010,08,21,15,31,21.00
2010,08,21,15,32,21.00
2010,08,21,15,33,21.00
2010,08,21,15,34,21.00
2010,08,21,15,35,21.10
2010,08,21,15,36,21.10
2010,08,21,15,37,21.10
2010,08,21,15,38,21.20
2010,08,21,15,39,21.20
2010,08,21,15,40,21.30
2010,08,21,15,41,21.30
2010,08,21,15,42,21.30
2010,08,21,15,43,21.30
2010,08,21,15,44,21.30
2010,08,21,15,45,21.30
2010,08,21,15,46,21.30
2010,08,21,15,47,21.40
2010,08,21,15,48,21.50
2010,08,21,15,49,21.60
2010,08,21,15,50,21.60
2010,08,21,15,51,21.60
2010,08,21,15,52,21.60
2010,08,21,15,53,21.60
2010,08,21,15,54,21.50
2010,08,21,15,55,21.40
2010,08,21,15,56,21.40
2010,08,21,15,57,21.40
2010,08,21,15,58,21.50
2010,08,21,15,59,21.60
2010,08,21,16,00,21.60
2010,08,21,16,01,21.70
2010,08,21,16,02,21.70
2010,08,21,16,03,21.80
2010,08,21,16,04,21.80
2010,08,21,16,05,21.80
2010,08,21,16,06,21.80
2010,08,21,16,07,21.90
2010,08,21,16,08,21.90
2010,08,21,16,09,21.90
2010,08,21,16,10,21.90
2010,08,21,16,11,21.90
2010,08,21,16,12,21.90
2010,08,21,16,13,21.80
2010,08,21,16,14,21.80
2010,08,21,16,15,21.70
2010,08,21,16,16,21.60
2010,08,21,16,17,21.60
2010,08,21,16,18,21.60
2010,08,21,16,19,21.60
2010,08,21,16,20,21.60
2010,08,21,16,21,21.60
2010,08,21,16,22,21.60
2010,08,21,16,23,21.60
2010,08,21,16,24,21.60
2010,08,21,16,25,21.60
2010,08,21,16,26,21.60
2010,08,21,16,27,21.60
2010,08,21,16,28,21.70
2010,08,21,16,29,21.70
2010,08,21,16,30,21.70
2010,08,21,16,31,21.70
2010,08,21,16,32,21.70
2010,08,21,16,33,21.70
2010,08,21,16,34,21.70
2010,08,21,16,35,21.70
2010,08,21,16,36,21.60
2010,08,21,16,37,21.60
2010,08,21,16,38,21.60
2010,08,21,16,39,21.50
2010,08,21,16,40,21.40
2010,08,21,16,41,21.40
2010,08,21,16,42,21.40
2010,08,21,16,43,21.40
2010,08,21,16,44,21.40
2010,08,21,16,45,21.50
2010,08,21,16,46,21.60
2010,08,21,16,47,21.60
2010,08,21,16,48,21.80
2010,08,21,16,49,21.90
2010,08,21,16,50,22.00
2010,08,21,16,51,22.10
2010,08,21,16,52,22.10
2010,08,21,16,53,22.10
2010,08,21,16,54,22.10
2010,08,21,16,55,22.10
2010,08,21,16,56,22.10
2010,08,21,16,57,22.00
2010,08,21,16,58,21.90
2010,08,21,16,59,21.80
2010,08,21,17,00,21.70
2010,08,21,17,01,21.60
2010,08,21,17,02,21.60
2010,08,21,17,03,21.40
2010,08,21,17,04,21.30
2010,08,21,17,05,21.30
2010,08,21,17,06,21.20
2010,08,21,17,07,21.10
2010,08,21,17,08,21.10
2010,08,21,17,09,21.10
2010,08,21,17,10,21.10
2010,08,21,17,11,21.20
2010,08,21,17,12,21.30
2010,08,21,17,13,21.30
2010,08,21,17,14,21.30
2010,08,21,17,15,21.30
2010,08,21,17,16,21.40
2010,08,21,17,17,21.50
2010,08,21,17,18,21.60
2010,08,21,17,19,21.60